Regional Weather Roundup
Issued by NWS Sterling, VA

Home | Current Version | Previous Version | Text Only | Print | Product List | Glossary Off
Versions: 1 2 3 4 5 6 7 8 9 10 11 12 13 14 15 16 17 18 19 20 21 22 23 24 25 26 27 28 29 30 31 32 33 34 35 36 37 38 39 40 41 42 43 44 45 46 47 48 49 50

935
ASUS41 KLWX 260610
RWRLWX

REGIONAL WEATHER ROUNDUP
NATIONAL WEATHER SERVICE BALTIMORE MD/WASHINGTON DC
200 AM EDT TUE JUL 26 2016

Note: "FAIR" indicates few or no clouds below 12,000 feet
with no significant weather and/or obstructions to visibility.
 TC=TEMPERATURE CELSIUS

 * =Non NWS site. Station does not report precipitation (e.g. rain,
    snow, etc.), thunder, or fog.

DCZ001-MDZ009-015-VAZ040>042-051-053>054-260700-
WASHINGTON METRO

CITY           SKY/WX    TMP DP  RH WIND       PRES   REMARKS
WASHINGTON NAT MOCLDY    81  73  76 E7        29.92R
DULLES         FAIR      80  72  76 N5        29.92S
ANDREWS AFB    PTCLDY    75  73  93 NE1       29.92R
FT BELVOIR     FAIR      75  73  94 CALM      29.91R FOG
COLLEGE PARK*  FAIR      75  72  88 CALM      29.91S
LEESBURG*      FAIR      79  75  89 N5        29.94S
MANASSAS*      FAIR      79  75  89 CALM      29.92R
GAITHERSBURG*  MOCLDY    73  68  83 CALM      29.97S

$$

MDZ006>007-011-014-260700-
BALTIMORE METRO

CITY           SKY/WX    TMP DP  RH WIND       PRES   REMARKS
BWI AIRPORT    CLOUDY    76  71  85 CALM      29.91F
MD SCIENCE CTR   N/A     81  70  69 MISG      29.92S
MARTIN STATE   CLOUDY    77  73  88 CALM      29.93R
ANNAPOLIS      PTCLDY    78  75  90 CALM      29.90S
FORT MEADE*    CLOUDY    72  70  94 CALM      29.94S

$$

MDZ012-015-019>023-260700-
MARYLAND EASTERN SHORE

CITY           SKY/WX    TMP DP  RH WIND       PRES   REMARKS
OCEAN CITY     LGT RAIN  77  73  87 NW16G23   29.94R
SALISBURY      TSTM      75  74  96 SE5       29.94R
BAY BRIDGE AP* PTCLDY    75  73  94 E3        29.91R
CAMBRIDGE*     CLOUDY    73  72  94 SE6       29.92R
EASTON*        CLOUDY    76  76 100 CALM      29.94S

$$

MDZ017>025-260700-
SOUTHERN MARYLAND

CITY           SKY/WX    TMP DP  RH WIND       PRES   REMARKS
PATUXENT RIVER CLOUDY    78  73  84 SW5       29.90S THUNDER
ST INIGOES     TSTM      79  76  90 S6        29.90F FOG
LEONARDTOWN*   CLOUDY    77  73  88 SW3       29.92S

$$

MDZ003>005-260700-
NORTH CENTRAL MARYLAND

CITY           SKY/WX    TMP DP  RH WIND       PRES   REMARKS
FREDERICK*     MOCLDY    72  72 100 CALM      29.96S
HAGERSTOWN APT CLOUDY    77  71  82 CALM      29.94S

$$

MDZ501>502-260700-
WESTERN MARYLAND

CITY           SKY/WX    TMP DP  RH WIND       PRES   REMARKS
OAKLAND*       CLOUDY    68  66  94 SW7       30.09S
CUMBERLAND*    CLOUDY    73  70  88 CALM      30.00F

$$

VAZ025>031-260700-
SHENANDOAH VALLEY

CITY           SKY/WX    TMP DP  RH WIND       PRES   REMARKS
WINCHESTER*    FAIR      77  70  78 CALM      29.95S
FRONT ROYAL*   FAIR      79  70  73 S5        29.94S
LURAY*         FAIR      75  75 100 S3        29.96S
NEW MARKET*    FAIR     N/A N/A N/A CALM      29.96S
STAUNTON*      FAIR      75  71  87 CALM      30.00F
WAYNESBORO*    FAIR      77  69  76 W7        30.00F

$$

WVZ021-048>050-054>055-260700-
EASTERN WEST VIRGINIA PANHANDLE

CITY           SKY/WX    TMP DP  RH WIND       PRES   REMARKS
MARTINSBURG    FAIR      78  68  71 CALM      29.93S
PETERSBURG*    FAIR      75  72  90 CALM      29.97F

$$

VAZ036>039-050-260700-
CENTRAL FOOTHILLS

CITY           SKY/WX    TMP DP  RH WIND       PRES   REMARKS
CHARLOTTESVILL FAIR      83  72  69 CALM      29.94S
CULPEPER*      FAIR      76  76  99 CALM      29.93S FOG
ORANGE*          N/A     79  77  94 CALM      29.94F
GORDONSVILLE*  FAIR      81  73  76 CALM      29.92F
WARRENTON*     FAIR      76  70  81 CALM      29.91F

$$

VAZ055>057-260700-
NORTH AND CENTRAL PIEDMONT

CITY           SKY/WX    TMP DP  RH WIND       PRES   REMARKS
FREDERICKSBRG* FAIR      82  76  81 CALM      29.90S HX  90
STAFFORD*      FAIR      77  74  90 CALM      29.95S

$$

NCZ024-NYZ072-PAZ021-071-VAZ022-071-260700-
OTHER REGIONAL OBSERVATIONS

CITY           SKY/WX    TMP DP  RH WIND       PRES   REMARKS
NEW YORK CITY  CLEAR     73  71  93 W6        29.89F
PHILADELPHIA   PTCLDY    76  73  91 SW8       29.91S
PITTSBURGH     MOCLDY    74  69  85 CALM      29.98F
ROANOKE        FAIR      76  72  87 W8        30.03R
RICHMOND       MOCLDY    83  75  77 SW9       29.92S HX  90
RALEIGH        PTCLDY    81  73  76 SW14      30.00S

$$

ANZ530>537-260700-
MARINE OBSERVATIONS

STATION/POSITION TIME  TEMP    WIND        PRES
                       AIR SEA DIR/SP/G
                 (UTC) (F)     (DEG/KT/KT) (MB)
THOMAS PT LIGHT  0600   79 85   80/  2/  2 1014.2R
BALT KEY BRIDGE  0542           90/  5/  5 1012.8S
COVE POINT       0542          230/  4/ 10 1012.8F
LEWISETTA        0542      85   20/  9/ 12 1012.7R
SOLOMONS ISLAND  0542      84  230/  4/  5   N/A
PINEY POINT      0542          260/  1/  3   N/A

$$





USA.gov is the U.S. government's official web portal to all federal, state and local government web resources and services.